Tracking 29892 objects as of 21-Nov-2024
HD Live streaming from Space Station
objects crossing your sky now

STARLINK-31788

Track STARLINK-31788 now!
10-day predictions
STARLINK-31788 is classified as:


NORAD ID: 60055
Int'l Code: 2024-112T
Perigee: 481.7 km
Apogee: 482.9 km
Inclination: 53.2 °
Period: 94.1 minutes
Semi major axis: 6853 km
RCS: Unknown
Launch date: June 8, 2024
Source: United States (US)
Launch site: AIR FORCE WESTERN TEST RANGE (AFWTR)
Your satellite tracking list
Your tracking list is empty




NASA's NSSDC Master Catalog

Two Line Element Set (TLE):
1 60055U 24112T   24325.43228645 -.00000053  00000-0  10326-4 0  9991
2 60055  53.1587 121.0171 0000886 344.5676  15.5298 15.30205169 25983
Source of the keplerian elements: AFSPC